Weather History for KMTJ - March, 2014

Change the Weather History Date:

Sunday, March 30, 2014

  Actual Average Record
Temperature  
Mean Temperature 53 °F 45 °F  
Max Temperature 65 °F 58 °F 75 °F (2015)
Min Temperature 40 °F 31 °F 16 °F (2009)
Degree Days  
Heating Degree Days 12 20  
Month to date heating degree days 645 719  
Since 1 July heating degree days 5377 5434  
Cooling Degree Days 0 0  
Month to date cooling degree days 0 0  
Year to date cooling degree days 0 0  
Growing Degree Days 4 (Base 50)    
Moisture  
Dew Point 17 °F    
Average Humidity 27    
Maximum Humidity 40    
Minimum Humidity 13    
Precipitation  
Precipitation T in 0.04 in 0.16 in (2005)
Month to date precipitation 0.61 0.98  
Year to date precipitation 1.66 2.21  
Sea Level Pressure  
Sea Level Pressure 29.67 in    
Wind  
Wind Speed 17 mph (SSW)    
Max Wind Speed 40 mph    
Max Gust Speed 61 mph    
Visibility 9 miles    
Events Rain    
T = Trace of Precipitation, MM = Missing Value Source: NWS Daily Summary

Daily Weather History Graph

Daily Weather History Graph

Search for Another Location

Airport or City:

Trip Planner

Search our weather history database for the weather conditions in past years. The results will help you decide how hot, cold, wet, or windy it might be!

Date:

Astronomy

Mar. 30, 2014 Rise Set
Actual Time 6:59 AM MDT 7:33 PM MDT
Civil Twilight 6:32 AM MDT 7:59 PM MDT
Nautical Twilight 6:01 AM MDT 8:31 PM MDT
Astronomical Twilight 5:29 AM MDT 9:03 PM MDT
Moon 6:47 AM MDT (3/30) 7:48 PM MDT (3/30)
Length of Visible Light 13h 27m
Length of Day
12h 33m
Waning Crescent, 0% of the Moon is Illuminated
Mar 30
Waning Crescent
Mar 30
New
Apr 7
First Quarter
Apr 15
Full
Apr 22
Last Quarter

Hourly Weather History & Observations

Time (MDT) Temp. Windchill Dew Point Humidity Pressure Visibility Wind Dir Wind Speed Gust Speed Precip Events Conditions
12:53 AM 46.0 °F - 18.0 °F 33% 29.88 in 10.0 mi Calm Calm - N/A   Clear
1:53 AM 44.1 °F 42.5 °F 19.9 °F 38% 29.86 in 10.0 mi NW 3.5 mph - N/A   Clear
2:53 AM 44.1 °F - 19.9 °F 38% 29.81 in 10.0 mi Calm Calm - N/A   Clear
3:53 AM 46.0 °F 43.9 °F 18.0 °F 33% 29.78 in 10.0 mi Variable 4.6 mph - N/A   Clear
4:53 AM 59.0 °F - 14.0 °F 17% 29.70 in 10.0 mi South 17.3 mph 26.5 mph N/A   Clear
5:53 AM 57.9 °F - 15.1 °F 19% 29.71 in 10.0 mi South 20.7 mph 29.9 mph N/A   Clear
6:53 AM 57.0 °F - 16.0 °F 20% 29.70 in 10.0 mi SSE 18.4 mph 28.8 mph N/A   Clear
7:53 AM 55.0 °F - 18.0 °F 23% 29.72 in 10.0 mi East 12.7 mph - N/A   Clear
8:53 AM 55.0 °F - 17.1 °F 23% 29.73 in 10.0 mi East 3.5 mph - N/A   Clear
9:53 AM 53.1 °F - 19.9 °F 27% 29.74 in 10.0 mi East 13.8 mph - N/A   Clear
10:53 AM 55.0 °F - 19.0 °F 24% 29.71 in 10.0 mi East 9.2 mph - N/A   Clear
11:53 AM 63.0 °F - 10.9 °F 13% 29.63 in 10.0 mi SW 21.9 mph 34.5 mph N/A   Clear
12:53 PM 63.0 °F - 12.0 °F 14% 29.61 in 10.0 mi SSW 20.7 mph 35.7 mph N/A   Clear
1:53 PM 62.1 °F - 14.0 °F 15% 29.60 in 10.0 mi SSW 29.9 mph 42.6 mph N/A   Clear
2:53 PM 61.0 °F - 17.1 °F 18% 29.55 in 10.0 mi South 26.5 mph 35.7 mph N/A   Partly Cloudy
3:53 PM 62.1 °F - 21.0 °F 21% 29.48 in 10.0 mi South 21.9 mph 35.7 mph N/A   Partly Cloudy
4:53 PM 61.0 °F - 15.1 °F 17% 29.42 in 6.0 mi SW 32.2 mph 59.8 mph N/A   Haze
5:32 PM 60.1 °F - 18.0 °F 20% 29.58 in 2.5 mi SW 31.1 mph 48.3 mph N/A   Haze
5:53 PM 61.0 °F - 15.1 °F 17% 29.40 in 2.5 mi SW 29.9 mph 43.7 mph N/A   Haze
6:14 PM 59.0 °F - 18.0 °F 20% 29.61 in 3.0 mi SW 33.4 mph 46.0 mph N/A   Haze
6:53 PM 52.0 °F - 27.0 °F 38% 29.54 in 9.0 mi West 20.7 mph 33.4 mph 0.00 in Rain Light Rain
7:53 PM 51.1 °F - 12.9 °F 22% 29.61 in 10.0 mi WSW 13.8 mph 29.9 mph 0.00 in   Mostly Cloudy
8:53 PM 48.0 °F - 10.9 °F 22% 29.69 in 10.0 mi WSW 32.2 mph 44.9 mph N/A   Clear
9:53 PM 44.1 °F 37.1 °F 21.0 °F 40% 29.76 in 10.0 mi WSW 15.0 mph 26.5 mph N/A   Clear
10:53 PM 44.1 °F 38.6 °F 19.9 °F 38% 29.78 in 10.0 mi SW 10.4 mph - N/A   Clear
11:53 PM 42.1 °F 35.2 °F 19.9 °F 41% 29.78 in 10.0 mi West 12.7 mph 21.9 mph N/A   Scattered Clouds